Simultaneous Nadir Overpasses (SNOs) Predictions

Prediction of SNOs between AQUA and METOP-C Satellite Orbit:

Table of predicted SNOs for the next 14.0 days since TLE Epoch: 8/28/2021
Index Date (AQUA) Time (AQUA) Lat,Lon (AQUA) SZA (AQUA ) Date (METOP-C) Time (METOP-C) Lat,Lon (METOP-C) SZA (METOP-C ) Distance(km) Time Diff (sec)
1 08/30/2021 18:11:19 73.46, -97.87 64.72 08/30/2021 18:10:09 73.41, -99.13 64.73 40.25 70
2 08/30/2021 19:00:51 -73.79, 69.07 114.92 08/30/2021 19:00:43 -73.76, 69.01 114.94 3.28 8
3 08/30/2021 19:50:20 73.87,-123.48 65.19 08/30/2021 19:51:22 73.84,-123.48 65.14 3.85 62
4 09/02/2021 13:45:38 73.61, -31.76 65.90 09/02/2021 13:44:26 73.58, -32.34 65.89 18.69 72
5 09/02/2021 14:35:07 -73.78, 135.53 113.92 09/02/2021 14:35:03 -73.79, 135.47 113.91 1.89 4
6 09/02/2021 15:24:36 73.87, -57.04 66.20 09/02/2021 15:25:42 73.85, -57.03 66.17 1.76 66
7 09/05/2021 09:19:56 73.72, 34.44 67.04 09/05/2021 09:18:43 73.74, 34.45 67.07 2.07 73
8 09/05/2021 10:09:24 -73.83,-158.15 112.84 09/05/2021 10:09:23 -73.81,-158.07 112.86 3.35 1
9 09/05/2021 10:58:52 73.87, 9.39 67.23 09/05/2021 11:00:02 73.87, 9.41 67.22 0.95 70
10 09/08/2021 04:54:11 73.73, 100.85 68.10 09/08/2021 04:53:02 73.75, 100.88 68.13 2.18 69
11 09/08/2021 05:43:39 -73.83, -91.72 111.78 09/08/2021 05:43:42 -73.82, -91.62 111.79 3.41 3
12 09/08/2021 06:33:08 73.94, 75.68 68.34 09/08/2021 06:34:20 73.93, 75.96 68.32 8.65 72
13 09/11/2021 00:28:27 73.75, 167.25 69.18 09/11/2021 00:27:22 73.76, 167.31 69.19 2.14 65
14 09/11/2021 01:17:54 -73.79, -25.20 110.77 09/11/2021 01:18:03 -73.79, -25.29 110.77 2.63 9



Historial Predications of SNOs between AQUA and METOP-C
